This is the latest recevied weather packets stored in our database for station/object M0OAB-1. If no packets are shown the sender has not sent any weather packets the latest 10 day(s).
| Time | Temp. | Humidity | Pressure | Rain* | Wind** | Luminosity | Snow |
|---|---|---|---|---|---|---|---|
| 1778016964 | 11.11° C | 74% | 999.2 hPa | 0 mm | - | - | - |
| 1778016604 | 11.67° C | 76% | 999.2 hPa | 0 mm | - | - | - |
| 1778016484 | 11.67° C | 77% | 999.2 hPa | 0 mm | - | - | - |
| 1778015405 | 11.67° C | 80% | 999 hPa | 0 mm | - | - | - |
| 1778015165 | 11.67° C | 80% | 999 hPa | 0 mm | - | - | - |
| 1778015045 | 11.67° C | 80% | 998.9 hPa | 0 mm | - | - | - |
| 1778014206 | 11.67° C | 80% | 998.9 hPa | 0 mm | - | - | - |
| 1778012886 | 11.67° C | 79% | 998.9 hPa | 0 mm | - | - | - |
| 1778011205 | 12.22° C | 70% | 998.7 hPa | 0 mm | - | - | - |
| 1778011085 | 12.78° C | 69% | 998.8 hPa | 0 mm | - | - | - |
| 1778010965 | 12.78° C | 69% | 998.7 hPa | 0 mm | - | - | - |
| 1778010245 | 12.78° C | 67% | 998.5 hPa | 0 mm | - | - | - |
| 1778010006 | 12.78° C | 66% | 998.4 hPa | 0 mm | - | - | - |
| 1778009765 | 13.33° C | 65% | 998.5 hPa | 0 mm | - | - | - |
| 1778009285 | 13.33° C | 64% | 998.4 hPa | 0 mm | - | - | - |
| 1778008805 | 13.33° C | 64% | 998.3 hPa | 0 mm | - | - | - |
| 1778008565 | 13.33° C | 64% | 998 hPa | 0 mm | - | - | - |
| 1778008085 | 13.33° C | 63% | 998.1 hPa | 0 mm | - | - | - |
| 1778007726 | 13.33° C | 63% | 997.9 hPa | 0 mm | - | - | - |
| 1778007605 | 13.33° C | 63% | 998 hPa | 0 mm | - | - | - |
| 1778006765 | 13.33° C | 63% | 997.9 hPa | 0 mm | - | - | - |
| 1778006285 | 13.33° C | 62% | 997.7 hPa | 0 mm | - | - | - |
| 1778006165 | 13.33° C | 62% | 997.8 hPa | 0 mm | - | - | - |
| 1778005686 | 13.33° C | 61% | 997.7 hPa | 0 mm | - | - | - |
| 1778005085 | 13.89° C | 61% | 997.7 hPa | 0 mm | - | - | - |
* Rain latest hour (hover to see other rain measurements)
** Current wind speed in m/s (hover to see current wind gust speed)